Location: Kelshall
(52.0000°N, 0.0500°W)
Time: 04:15:51
(UTC+00:00)

Cosmos 1674 - Visible Passes

Search period start: 18 January 2021 00:00
Search period end: 28 January 2021 00:00
Orbit: 495 x 516 km, 82.5° (Epoch: 17 January)

Date Brightness Start Highest point End Pass type
(mag) Time Alt. Az. Time Alt. Az. Time Alt. Az.
18 Jan 5.4 18:27:00 10° WSW 18:29:45 18° WNW 18:32:30 10° NNW visible
19 Jan 5.1 18:08:21 10° WSW 18:11:25 22° WNW 18:14:31 10° NNW visible
20 Jan 4.8 17:49:46 10° SW 17:53:07 28° WNW 17:56:28 10° N visible
21 Jan 4.4 17:31:16 10° SW 17:34:48 35° WNW 17:38:23 10° N visible
22 Jan 3.9 17:12:51 10° SSW 17:16:32 44° WNW 17:20:14 10° N visible
25 Jan 5.7 17:56:28 10° W 17:57:54 12° WNW 17:59:20 10° NW visible
26 Jan 5.5 17:37:21 10° W 17:39:31 14° WNW 17:41:41 10° NNW visible
27 Jan 5.4 17:18:31 10° WSW 17:21:10 18° WNW 17:23:49 10° NNW visible
